TimeEST,TemperatureF,Dew PointF,Humidity,Sea Level PressureIn,VisibilityMPH,Wind Direction,Wind SpeedMPH,Gust SpeedMPH,PrecipitationIn,Events,Conditions,WindDirDegrees,DateUTC
12:51 AM,18.0,9.0,68,30.45,10.0,Calm,Calm,-,N/A,,Overcast,0,2013-12-08 05:51:00
1:51 AM,18.0,9.0,68,30.46,10.0,Variable,3.5,-,N/A,,Overcast,0,2013-12-08 06:51:00
2:34 AM,17.6,8.6,68,30.38,10.0,Calm,Calm,-,N/A,,Overcast,0,2013-12-08 07:34:00
2:51 AM,17.1,9.0,71,30.47,10.0,Variable,3.5,-,N/A,,Overcast,0,2013-12-08 07:51:00
3:17 AM,17.6,8.6,68,30.39,10.0,Calm,Calm,-,N/A,,Overcast,0,2013-12-08 08:17:00
3:35 AM,17.6,8.6,68,30.38,10.0,Calm,Calm,-,N/A,,Overcast,0,2013-12-08 08:35:00
3:51 AM,17.1,10.0,74,30.47,10.0,Calm,Calm,-,N/A,,Overcast,0,2013-12-08 08:51:00
4:51 AM,17.1,12.0,81,30.48,10.0,Calm,Calm,-,0.00,,Overcast,0,2013-12-08 09:51:00
5:51 AM,17.1,12.9,84,30.51,6.0,Calm,Calm,-,0.00,Snow,Light Snow,0,2013-12-08 10:51:00
6:36 AM,17.6,12.2,79,30.43,6.0,West,4.6,-,0.00,Snow,Light Snow,260,2013-12-08 11:36:00
6:51 AM,16.0,10.9,81,30.52,2.0,Calm,Calm,-,0.01,Snow,Light Snow,0,2013-12-08 11:51:00
7:00 AM,15.8,10.4,79,30.43,5.0,Variable,3.5,-,0.00,Snow,Light Snow,0,2013-12-08 12:00:00
7:15 AM,15.8,10.4,79,30.43,10.0,WSW,3.5,-,0.00,,Overcast,240,2013-12-08 12:15:00
7:51 AM,16.0,12.0,84,30.52,10.0,Calm,Calm,-,0.00,,Overcast,0,2013-12-08 12:51:00
8:51 AM,16.0,12.0,84,30.54,10.0,Calm,Calm,-,N/A,,Overcast,0,2013-12-08 13:51:00
9:12 AM,15.8,12.2,86,30.44,10.0,Calm,Calm,-,N/A,,Overcast,0,2013-12-08 14:12:00
9:51 AM,18.0,14.0,84,30.55,10.0,Calm,Calm,-,N/A,,Mostly Cloudy,0,2013-12-08 14:51:00
10:22 AM,17.6,12.2,79,30.46,4.0,SW,5.8,-,0.00,Snow,Light Snow,220,2013-12-08 15:22:00
10:32 AM,17.6,12.2,79,30.46,2.5,SW,3.5,-,0.00,Snow,Light Snow,230,2013-12-08 15:32:00
10:40 AM,17.6,12.2,79,30.45,4.0,SSW,5.8,-,0.00,Snow,Light Snow,210,2013-12-08 15:40:00
10:51 AM,19.0,14.0,81,30.55,3.0,SW,5.8,-,0.00,Snow,Light Snow,220,2013-12-08 15:51:00
11:03 AM,19.4,14.0,80,30.44,2.0,SSW,4.6,-,0.00,Snow,Light Snow,210,2013-12-08 16:03:00
11:15 AM,19.4,12.2,74,30.43,4.0,SSW,4.6,-,0.00,,Haze,210,2013-12-08 16:15:00
11:51 AM,19.0,12.9,77,30.51,8.0,Calm,Calm,-,0.00,,Overcast,0,2013-12-08 16:51:00
12:51 PM,19.9,12.9,74,30.51,10.0,WSW,5.8,-,N/A,,Overcast,240,2013-12-08 17:51:00
1:15 PM,19.4,12.2,74,30.39,7.0,SSW,4.6,-,N/A,,Overcast,200,2013-12-08 18:15:00
1:26 PM,19.4,12.2,74,30.41,7.0,SSW,5.8,-,N/A,,Overcast,200,2013-12-08 18:26:00
1:51 PM,21.0,12.9,71,30.49,10.0,SSW,3.5,-,N/A,,Overcast,200,2013-12-08 18:51:00
2:51 PM,19.9,12.0,71,30.49,10.0,SSW,5.8,-,N/A,,Overcast,210,2013-12-08 19:51:00
3:31 PM,19.4,10.4,68,30.40,10.0,SSW,4.6,-,N/A,,Mostly Cloudy,210,2013-12-08 20:31:00
3:38 PM,19.4,10.4,68,30.40,10.0,SW,4.6,-,N/A,,Mostly Cloudy,220,2013-12-08 20:38:00
3:51 PM,19.0,10.9,71,30.50,10.0,SW,4.6,-,N/A,,Partly Cloudy,220,2013-12-08 20:51:00
4:51 PM,15.1,10.9,84,30.49,10.0,Calm,Calm,-,N/A,,Scattered Clouds,0,2013-12-08 21:51:00
5:51 PM,15.1,10.9,84,30.49,10.0,Calm,Calm,-,N/A,,Scattered Clouds,0,2013-12-08 22:51:00
6:51 PM,16.0,12.9,88,30.46,10.0,Calm,Calm,-,N/A,,Overcast,0,2013-12-08 23:51:00
7:51 PM,17.1,14.0,88,30.46,10.0,Calm,Calm,-,N/A,,Unknown,0,2013-12-09 00:51:00
8:51 PM,18.0,14.0,84,30.45,10.0,Calm,Calm,-,N/A,,Overcast,0,2013-12-09 01:51:00
9:51 PM,18.0,14.0,84,30.44,10.0,Calm,Calm,-,N/A,,Overcast,0,2013-12-09 02:51:00
10:51 PM,19.0,14.0,81,30.40,10.0,East,3.5,-,N/A,,Overcast,80,2013-12-09 03:51:00
11:51 PM,19.0,14.0,81,30.39,10.0,ENE,4.6,-,N/A,,Overcast,70,2013-12-09 04:51:00